TIANMU-1 18

Last updated on Sat Apr 04 2026 00:02:26 GMT+0000 (Coordinated Universal Time)

1 58703U 24004D 26093.65436451 .00011075 00000+0 43043-3 0 9997 2 58703 97.4664 279.8529 0002750 244.7074 115.3880 15.26222375124407
UTC large
Height (km)
Speed (km/s)
/
Latitude / Longitude
Inclination (degrees)
Orbital Period (minutes)
Azimuth
Elevation
Range (km)
Doppler Factor

Next 0 passes for location: London (51.5072 / 0.1276)

Sorry there are no passes over London.